"2009-01-02 00:00:30",504362,2.306,219,16.62,1.437,10.59,103.6921,8.73,9.8,25.22,0,110,13.41,9.51,181.0
"2009-01-02 00:01:00",504363,4.385,205.3,11.73,1.19,11.22,103.6927,8.73,9.67,25.21,0,110,13.41,9.51,167.3
"2009-01-02 00:01:30",504364,3.099,182.9,11.02,0.977,8.88,103.6755,8.68,9.66,25.08,0,110,13.41,9.47,144.9
"2009-01-02 00:02:00",504365,4.16,194.8,7.564,1.368,11.14,103.6603,8.65,9.69,25.2,0,110,13.41,9.43,156.8
"2009-01-02 00:02:30",504366,3.068,240.3,27.01,2.05,10.31,103.662,8.65,9.72,25.47,0,110,13.41,9.43,202.3
"2009-01-02 00:03:00",504367,2.43,246.7,15.76,1.014,8.17,103.6635,8.65,9.54,25.37,0,110,13.41,9.44,208.7
"2009-01-02 00:03:30",504368,1.691,232.9,19.12,0.2,7.823,103.6653,8.66,9.6,25.43,0,110,13.45,9.44,194.9
"2009-01-02 00:04:00",504369,1.913,230.6,22.41,1.229,10.05,103.6679,8.66,9.66,25.46,0,110,13.42,9.45,192.6
"2009-01-02 00:04:30",504370,1.013,210.8,31.13,0.424,8.73,103.6802,8.7,9.69,25.49,0,110,13.45,9.48,172.8
"2009-01-02 00:05:00",504371,2.272,224.2,21.86,1.411,10.25,103.6963,8.74,9.71,25.49,0,110,13.42,9.52,186.2
"2009-01-02 00:05:30",504372,1.56,207.4,25.07,1.127,8.63,103.6996,8.75,9.69,25.49,0,110,13.42,9.53,169.4
"2009-01-02 00:06:00",504373,1.864,264.4,11.67,1.202,9,103.6824,8.7,9.66,25.45,0,110,13.42,9.48,226.4
"2009-01-02 00:06:30",504374,2.831,248.1,10.6,1.306,10.28,103.6834,8.7,9.66,25.44,0,110,13.42,9.49,210.1
"2009-01-02 00:07:00",504375,1.408,256.8,16.52,0.97,9.06,103.6872,8.71,9.74,25.53,0,109.9,13.42,9.50,218.8
"2009-01-02 00:07:30",504376,1.322,235.7,37.93,1.426,9.11,103.6799,8.7,9.56,25.39,0,110,13.42,9.48,197.7
"2009-01-02 00:08:00",504377,0.278,194.3,15.04,0.265,8.05,103.6623,8.65,9.54,25.46,0,110,13.46,9.43,156.3
"2009-01-02 00:08:30",504378,1.202,170.4,40.84,1.21,10.17,103.6648,8.66,9.68,25.64,0,110,13.42,9.44,132.4
"2009-01-02 00:09:00",504379,0.389,152.4,34.24,0.356,7.907,103.6598,8.64,9.53,25.5,0,110,13.46,9.43,114.4
"2009-01-02 00:09:30",504380,1.606,157.1,18.79,0.88,8.08,103.6598,8.64,9.52,25.48,0,110,13.42,9.43,119.1
"2009-01-02 00:10:00",504381,1.079,187.9,37.92,0.972,9.39,103.6595,8.64,9.67,25.68,0,110,13.42,9.43,149.9
"2009-01-02 00:10:30",504382,1.684,221.3,34.11,1.125,9.02,103.6541,8.63,9.51,25.53,0,110,13.42,9.41,183.3
"2009-01-02 00:11:00",504383,2.186,199.7,21.59,1.187,10.14,103.6451,8.61,9.59,25.64,0,110,13.42,9.39,161.7
"2009-01-02 00:11:30",504384,0.935,176.3,10.45,0.403,8.21,103.6462,8.61,9.59,25.68,0,110,13.46,9.39,138.3
"2009-01-02 00:12:00",504385,3.058,211.2,11.45,1.654,10.08,103.6312,8.57,9.65,25.76,0,110,13.42,9.35,173.2
"2009-01-02 00:12:30",504386,1.904,208,9.14,0.676,8.23,103.6259,8.56,9.59,25.76,0,110,13.42,9.34,170.0
"2009-01-02 00:13:00",504387,2.704,186.1,19.7,1.266,10.57,103.6208,8.54,9.57,25.79,0,110,13.42,9.33,148.1
"2009-01-02 00:13:30",504388,1.493,178.9,13.56,0.424,7.456,103.5948,8.48,9.45,25.76,0,110,13.45,9.26,140.9
"2009-01-02 00:14:00",504389,1.413,219.1,11.72,0.249,7.229,103.5909,8.47,9.38,25.77,0,110,13.45,9.25,181.1
"2009-01-02 00:14:30",504390,1.405,236.2,9.66,0.228,7.831,103.5861,8.46,9.48,25.91,0,110,13.45,9.24,198.2
"2009-01-02 00:15:00",504391,3.964,220.8,14.37,1.311,11.19,103.5912,8.47,9.55,25.96,0,110,13.42,9.25,182.8
"2009-01-02 00:15:30",504392,3.739,212.8,20.67,1.576,10.36,103.5861,8.46,9.52,25.94,0,110,13.42,9.24,174.8
"2009-01-02 00:16:00",504393,2.758,229.3,32.13,0.455,8.31,103.59,8.47,9.34,25.75,0,110,13.45,9.25,191.3
"2009-01-02 00:16:30",504394,3.466,266.6,17.68,1.128,10.51,103.5954,8.48,9.56,25.93,0,110,13.42,9.26,228.6
"2009-01-02 00:17:00",504395,3.061,210.5,18.72,1.145,11.3,103.5931,8.47,9.62,25.94,0,110,13.42,9.26,172.5
"2009-01-02 00:17:30",504396,1.98,190.9,4.5,0.134,8.05,103.592,8.47,9.36,25.71,0,110,13.46,9.25,152.9
"2009-01-02 00:18:00",504397,1.877,207.9,19.82,0.23,7.34,103.5923,8.47,9.37,25.68,0,110,13.46,9.25,169.9
"2009-01-02 00:18:30",504398,2.826,243.2,6.669,0.921,8.65,103.592,8.47,9.54,25.91,0,110,13.43,9.25,205.2
"2009-01-02 00:19:00",504399,3.796,254.7,12,1.352,10.47,103.592,8.47,9.49,25.93,0,110,13.43,9.25,216.7
"2009-01-02 00:19:30",504400,3.934,253.3,8.93,1.12,10.95,103.592,8.47,9.54,25.98,0,110,13.43,9.25,215.3
"2009-01-02 00:20:00",504401,1.643,237.3,9.25,0.553,8.02,103.592,8.47,9.34,25.8,0,110,13.43,9.25,199.3
"2009-01-02 00:20:30",504402,2.885,202.7,6.58,1.469,10.82,103.5923,8.47,9.58,25.97,0,110,13.43,9.25,164.7
"2009-01-02 00:21:00",504403,2.624,168.6,8.67,1.274,11.18,103.6064,8.51,9.61,25.98,0,110,13.43,9.29,130.6
"2009-01-02 00:21:30",504404,2.763,162.2,6.292,1.249,10,103.6239,8.55,9.44,25.7,0,110,13.43,9.33,124.2
"2009-01-02 00:22:00",504405,0.92,161.3,21.79,0.41,7.79,103.6268,8.56,9.42,25.61,0,110,13.46,9.34,123.3
"2009-01-02 00:22:30",504406,1.437,163.8,14.48,0.284,7.878,103.6503,8.62,9.43,25.54,0,110,13.46,9.40,125.8
"2009-01-02 00:23:00",504407,2.506,191.1,22.09,1.414,10.59,103.6646,8.66,9.62,25.62,0,110,13.43,9.44,153.1
"2009-01-02 00:23:30",504408,2.232,176.7,27.69,1.344,12.21,103.6916,8.73,9.75,25.63,0,110,13.43,9.51,138.7
"2009-01-02 00:24:00",504409,1.036,212.2,19.67,1.254,9.3,103.7024,8.75,9.55,25.34,0,110,13.43,9.54,174.2
"2009-01-02 00:24:30",504410,0.154,239.5,20.84,0.118,7.795,103.7329,8.83,9.59,25.27,0,110,13.47,9.61,201.5
"2009-01-02 00:25:00",504411,0.941,297.8,16.39,0.989,8.02,103.7363,8.84,9.6,25.21,0,110,13.44,9.62,259.8
"2009-01-02 00:25:30",504412,1.954,248.9,12.69,1.245,9.94,103.7393,8.85,9.77,25.34,0,110,13.44,9.63,210.9
"2009-01-02 00:26:00",504413,1.947,262.6,17.98,1.477,9.81,103.7387,8.85,9.77,25.45,0,110,13.44,9.63,224.6
"2009-01-02 00:26:30",504414,1.646,215.3,15.05,0.919,8.32,103.7099,8.77,9.72,25.43,0,110,13.44,9.55,177.3
"2009-01-02 00:27:00",504415,2.116,192.2,15.07,1.401,10.24,103.7098,8.77,9.72,25.48,0,110,13.44,9.55,154.2
"2009-01-02 00:27:30",504416,1.579,188.1,9.32,0.326,8.05,103.6906,8.72,9.61,25.53,0,109.9,13.47,9.51,150.1
"2009-01-02 00:28:00",504417,2.479,191.9,12.28,1.384,9.57,103.6797,8.69,9.74,25.7,0,110,13.44,9.48,153.9
"2009-01-02 00:28:30",504418,3.678,183.9,10.27,1.231,11.68,103.6953,8.73,9.84,25.71,0,109.9,13.43,9.52,145.9
"2009-01-02 00:29:00",504419,2.44,170.3,8.95,1.258,9.58,103.7067,8.76,9.69,25.53,0,109.9,13.43,9.55,132.3
"2009-01-02 00:29:30",504420,2.46,186.2,7.278,1.228,9.9,103.7191,8.8,9.64,25.48,0,109.9,13.43,9.58,148.2
"2009-01-02 00:30:00",504421,1.986,203.1,10.1,1.118,9.39,103.7221,8.8,9.78,25.61,0,109.9,13.43,9.59,165.1
"2009-01-02 00:30:30",504422,2.109,232.8,19.98,0.915,8.64,103.7197,8.8,9.62,25.46,0,109.9,13.43,9.58,194.8
"2009-01-02 00:31:00",504423,3.041,271.8,19.72,1.606,10.5,103.7215,8.8,9.72,25.5,0,109.9,13.43,9.58,233.8
"2009-01-02 00:31:30",504424,1.74,272.5,16.9,0.674,8.62,103.7253,8.81,9.75,25.55,0,109.9,13.43,9.59,234.5
"2009-01-02 00:32:00",504425,3.144,282.5,9.77,1.211,10.22,103.7265,8.81,9.7,25.39,0,109.9,13.43,9.60,244.5
"2009-01-02 00:32:30",504426,2.296,286.3,12.61,1.092,10.33,103.7268,8.82,9.87,25.52,0,109.9,13.43,9.60,248.3
"2009-01-02 00:33:00",504427,2.883,319.7,13.13,1.222,12.01,103.7259,8.81,9.84,25.48,0,109.9,13.43,9.60,281.7
"2009-01-02 00:33:30",504428,1.995,334,15.58,0.988,9.8,103.7276,8.82,9.78,25.45,0,109.9,13.44,9.60,296.0
"2009-01-02 00:34:00",504429,2.656,322.9,9.59,0.961,8.83,103.7282,8.82,9.81,25.51,0,109.9,13.44,9.60,284.9
"2009-01-02 00:34:30",504430,3.234,320,8.46,1.166,8.72,103.7291,8.82,9.73,25.44,0,109.9,13.44,9.60,282.0
"2009-01-02 00:35:00",504431,2.915,313.1,25.86,1.25,9.31,103.7288,8.82,9.75,25.46,0,109.9,13.44,9.60,275.1
"2009-01-02 00:35:30",504432,3.011,302.5,5.617,0.408,8.04,103.7288,8.82,9.71,25.47,0,109.9,13.47,9.60,264.5
"2009-01-02 00:36:00",504433,4.07,306.9,7.94,1.462,10.87,103.7285,8.82,9.76,25.51,0,109.9,13.44,9.60,268.9
"2009-01-02 00:36:30",504434,2.722,317.3,23.94,1.333,10.8,103.7254,8.81,9.8,25.56,0,109.9,13.44,9.59,279.3
"2009-01-02 00:37:00",504435,4.111,334.6,12.09,1.166,12.2,103.7285,8.82,9.89,25.68,0,109.9,13.44,9.60,296.6
"2009-01-02 00:37:30",504436,2.688,355.1,13.69,1.317,9.56,103.7285,8.82,9.8,25.58,0,109.9,13.44,9.60,317.1
"2009-01-02 00:38:00",504437,2.068,343.9,19.81,0.974,8.92,103.7274,8.82,9.81,25.65,0,109.9,13.44,9.60,305.9
"2009-01-02 00:38:30",504438,4.387,297.5,12.59,0.895,9.15,103.7288,8.82,9.73,25.54,0,109.9,13.44,9.60,259.5
"2009-01-02 00:39:00",504439,6.726,276.5,18.02,1.182,10.63,103.7288,8.82,9.73,25.51,0,109.9,13.44,9.60,238.5
"2009-01-02 00:39:30",504440,6.666,270.8,8.71,2.454,11.46,103.7438,8.86,9.77,25.61,0,109.9,13.44,9.64,232.8
"2009-01-02 00:40:00",504441,5.557,298.3,21.02,1.438,13.06,103.7627,8.91,10.01,25.85,0,109.9,13.44,9.69,260.3
"2009-01-02 00:40:30",504442,6.104,280,11.22,1.389,12.08,103.7791,8.95,10,25.76,0,109.9,13.44,9.73,242.0
"2009-01-02 00:41:00",504443,7.209,278.2,9.79,1.729,10.01,103.7966,8.99,9.83,25.42,0,109.9,13.44,9.78,240.2
"2009-01-02 00:41:30",504444,5.974,266,16.62,1.568,9.54,103.7966,8.99,9.81,25.33,0,109.9,13.44,9.78,228.0
"2009-01-02 00:42:00",504445,3.74,272.6,26.99,1.491,10.61,103.7966,8.99,9.95,25.39,0,109.9,13.44,9.78,234.6
"2009-01-02 00:42:30",504446,2.039,261.2,3.43,0.445,8.7,103.7876,8.97,9.83,25.21,0,109.9,13.47,9.75,223.2
"2009-01-02 00:43:00",504447,3.559,247.5,12.65,1.343,10.89,103.7624,8.91,9.93,25.33,0,109.9,13.44,9.69,209.5
"2009-01-02 00:43:30",504448,2.959,229.7,8.21,1.235,10.71,103.7314,8.83,9.99,25.45,0,109.9,13.44,9.61,191.7
"2009-01-02 00:44:00",504449,3.209,232.3,25.51,1.397,11.02,103.7028,8.75,9.96,25.64,0,109.9,13.44,9.54,194.3
"2009-01-02 00:44:30",504450,4.133,256.8,8.19,1.442,9.51,103.691,8.72,9.81,25.72,0,109.9,13.44,9.51,218.8
"2009-01-02 00:45:00",504451,3.969,253.9,5.575,0.261,8.01,103.6647,8.66,9.74,25.87,0,109.9,13.47,9.44,215.9
"2009-01-02 00:45:30",504452,6.03,267.6,5.914,1.481,9.78,103.661,8.65,9.65,25.84,0,109.9,13.44,9.43,229.6
"2009-01-02 00:46:00",504453,5.92,282.6,7.841,1.451,10.43,103.6582,8.64,9.71,25.93,0,109.9,13.43,9.42,244.6
"2009-01-02 00:46:30",504454,5.058,288,6.318,1.407,10.98,103.6339,8.58,9.78,26.07,0,109.9,13.43,9.36,250.0
"2009-01-02 00:47:00",504455,6.219,273.5,7.594,1.155,12.14,103.6271,8.56,9.79,26.31,0,109.9,13.43,9.34,235.5
"2009-01-02 00:47:30",504456,5.393,289.7,10.56,1.092,11.88,103.6271,8.56,9.72,26.12,0,109.9,13.43,9.34,251.7
"2009-01-02 00:48:00",504457,4.628,272.2,10.95,0.896,8.54,103.6271,8.56,9.49,25.9,0,109.9,13.43,9.34,234.2
"2009-01-02 00:48:30",504458,3.879,257.1,4.868,0.457,7.641,103.6311,8.57,9.54,26.18,0,109.9,13.46,9.35,219.1
"2009-01-02 00:49:00",504459,6.167,265,7.736,1.279,10.2,103.6398,8.59,9.59,26.23,0,109.9,13.43,9.38,227.0
"2009-01-02 00:49:30",504460,6.126,271.6,6.119,1.239,10.47,103.6565,8.64,9.65,26.22,0,109.9,13.44,9.42,233.6
"2009-01-02 00:50:00",504461,6.302,271.5,7.001,1.166,10.9,103.661,8.65,9.77,26.24,0,109.9,13.44,9.43,233.5
"2009-01-02 00:50:30",504462,6.101,261.5,7.709,1.184,12.31,103.661,8.65,9.76,26.21,0,109.9,13.44,9.43,223.5
"2009-01-02 00:51:00",504463,5.257,254.5,6.71,1.237,11.14,103.6757,8.68,9.75,26.09,0,109.9,13.44,9.47,216.5
"2009-01-02 00:51:30",504464,3.718,259.1,9.15,0.467,7.85,103.6943,8.73,9.62,25.96,0,109.9,13.48,9.51,221.1
"2009-01-02 00:52:00",504465,3.69,257,6.734,0.24,7.817,103.6986,8.74,9.58,25.93,0,109.9,13.48,9.53,219.0
"2009-01-02 00:52:30",504466,5.781,265.4,7.523,1.527,10.25,103.7203,8.8,9.77,26.02,0,109.9,13.44,9.58,227.4
"2009-01-02 00:53:00",504467,5.723,274,8.82,1.538,10.31,103.7288,8.82,9.78,26.09,0,109.9,13.44,9.60,236.0
"2009-01-02 00:53:30",504468,7.858,279.5,5.353,1.142,13.13,103.7288,8.82,9.86,26.19,0,109.9,13.44,9.60,241.5
"2009-01-02 00:54:00",504469,7.321,286.4,6.168,0.977,12.86,103.7288,8.82,9.95,26.29,0,109.9,13.44,9.60,248.4
"2009-01-02 00:54:30",504470,7.84,285,6.242,1.615,11.14,103.7274,8.82,9.83,26.24,0,109.9,13.44,9.60,247.0
"2009-01-02 00:55:00",504471,6.449,273.6,3.62,0.604,8,103.7181,8.79,9.68,26.29,0,109.9,13.48,9.58,235.6
"2009-01-02 00:55:30",504472,6.101,279.6,9.1,0.905,8.68,103.7003,8.75,9.76,26.39,0,109.9,13.44,9.53,241.6
"2009-01-02 00:56:00",504473,5.818,290.3,5.277,1.117,9.82,103.6949,8.73,9.7,26.36,0,109.9,13.44,9.52,252.3
"2009-01-02 00:56:30",504474,6.245,295.5,5.925,1.142,11.89,103.6949,8.73,9.84,26.46,0,109.9,13.44,9.52,257.5
"2009-01-02 00:57:00",504475,5.855,297.3,7.278,1.271,11.53,103.6955,8.74,9.87,26.45,0,109.9,13.44,9.52,259.3
"2009-01-02 00:57:30",504476,5.482,297.4,10.82,1.32,11.63,103.6989,8.74,9.88,26.44,0,109.9,13.44,9.53,259.4
"2009-01-02 00:58:00",504477,4.327,297.8,4.951,1.344,8.75,103.7152,8.79,9.72,26.26,0,109.9,13.44,9.57,259.8
"2009-01-02 00:58:30",504478,3.615,292.5,5.368,0.515,8.18,103.7243,8.81,9.71,26.23,0,109.9,13.48,9.59,254.5
"2009-01-02 00:59:00",504479,3.853,291.6,2.793,0.286,7.826,103.7282,8.82,9.71,26.19,0,109.9,13.48,9.60,253.6
"2009-01-02 00:59:30",504480,5.174,301.9,5.772,1.322,10.22,103.7288,8.82,9.75,26.13,0,109.9,13.44,9.60,263.9
"2009-01-02 01:00:00",504481,5.876,300.4,7.388,1.458,10.99,103.728,8.82,9.92,26.36,0,109.9,13.44,9.60,262.4
"2009-01-02 01:00:30",504482,5.393,303.6,12.44,1.191,11.33,103.7073,8.77,9.86,26.47,0,109.9,13.44,9.55,265.6
"2009-01-02 01:01:00",504483,5.39,299.3,7.32,1.384,11.49,103.6949,8.73,9.9,26.58,0,109.9,13.44,9.52,261.3
"2009-01-02 01:01:30",504484,6.27,301,8.82,1.186,10.87,103.6743,8.68,9.75,26.5,0,109.9,13.44,9.46,263.0
"2009-01-02 01:02:00",504485,4.289,286.2,2.419,0.172,7.796,103.661,8.65,9.59,26.37,0,109.9,13.47,9.43,248.2
"2009-01-02 01:02:30",504486,4.04,286.6,1.638,0.229,7.887,103.661,8.65,9.58,26.29,0,109.9,13.47,9.43,248.6
"2009-01-02 01:03:00",504487,4.895,289.2,4.469,1.407,10.42,103.661,8.65,9.73,26.43,0,109.9,13.44,9.43,251.2
"2009-01-02 01:03:30",504488,5.893,286.4,6.555,1.283,12.3,103.661,8.65,9.83,26.45,0,109.9,13.44,9.43,248.4
"2009-01-02 01:04:00",504489,5.663,288.9,6.228,1.357,12.06,103.6636,8.65,9.73,26.35,0,109.9,13.44,9.44,250.9
"2009-01-02 01:04:30",504490,4.415,291.4,11.07,1.244,10.59,103.6706,8.67,9.78,26.46,0,109.9,13.44,9.45,253.4
"2009-01-02 01:05:00",504491,3.459,307,5.824,1.524,10.19,103.6774,8.69,9.79,26.34,0,109.9,13.44,9.47,269.0
"2009-01-02 01:05:30",504492,4.08,306.9,7.918,1.106,9.35,103.6734,8.68,9.61,26.12,0,109.9,13.44,9.46,268.9
"2009-01-02 01:06:00",504493,3.408,289.3,5.413,0.474,7.574,103.6791,8.69,9.58,26.23,0,109.9,13.48,9.48,251.3
"2009-01-02 01:06:30",504494,4.868,288.4,6.116,0.958,9.66,103.6613,8.65,9.7,26.54,0,109.9,13.44,9.43,250.4
"2009-01-02 01:07:00",504495,5.262,297.3,7.312,1.267,10.91,103.661,8.65,9.7,26.58,0,109.9,13.44,9.43,259.3
"2009-01-02 01:07:30",504496,5.507,297.7,5.683,1.247,11.79,103.6441,8.6,9.67,26.56,0,109.9,13.45,9.39,259.7
"2009-01-02 01:08:00",504497,4.338,294.8,8.25,1.21,9.92,103.6291,8.57,9.62,26.63,0,109.9,13.45,9.35,256.8
"2009-01-02 01:08:30",504498,5.016,297,9.04,1.313,11.35,103.6271,8.56,9.73,26.79,0,109.9,13.44,9.34,259.0
"2009-01-02 01:09:00",504499,3.251,276.6,8.2,0.865,8,103.6274,8.56,9.55,26.65,0,109.9,13.45,9.34,238.6
"2009-01-02 01:09:30",504500,3.087,265.8,4.365,0.12,7.393,103.6223,8.55,9.47,26.62,0,109.9,13.48,9.33,227.8
"2009-01-02 01:10:00",504501,2.404,260,6.146,0.497,7.683,103.6195,8.54,9.47,26.62,0,109.9,13.48,9.32,222.0
"2009-01-02 01:10:30",504502,3.241,262.1,8.62,0.93,9.02,103.6229,8.55,9.59,26.64,0,109.9,13.45,9.33,224.1
"2009-01-02 01:11:00",504503,5.598,285.6,6.044,1.212,12.33,103.6274,8.56,9.66,26.67,0,109.9,13.45,9.34,247.6
"2009-01-02 01:11:30",504504,6.585,286.4,7.566,1.647,12.27,103.6277,8.56,9.64,26.69,0,109.9,13.45,9.34,248.4
"2009-01-02 01:12:00",504505,7.187,286.2,20.1,1.29,10.98,103.6277,8.56,9.56,26.62,0,109.9,13.45,9.34,248.2
"2009-01-02 01:12:30",504506,7.796,298.4,10.5,1.266,11.9,103.6331,8.58,9.72,26.62,0,109.9,13.45,9.36,260.4
"2009-01-02 01:13:00",504507,7.782,295.9,4.153,0.646,9.84,103.6593,8.64,9.5,26.3,0,109.9,13.45,9.43,257.9
"2009-01-02 01:13:30",504508,8.07,288.2,10.73,0.994,9.59,103.6616,8.65,9.52,26.3,0,109.9,13.45,9.43,250.2
"2009-01-02 01:14:00",504509,8.64,280.4,7.321,1.362,12.29,103.671,8.67,9.72,26.49,0,109.9,13.45,9.46,242.4
"2009-01-02 01:14:30",504510,7.526,274.4,6.951,1.387,11.5,103.6964,8.74,9.71,26.5,0,109.9,13.45,9.52,236.4
"2009-01-02 01:15:00",504511,6.288,272.2,7.13,1.316,9.93,103.697,8.74,9.61,26.46,0,109.9,13.45,9.52,234.2
"2009-01-02 01:15:30",504512,8.02,282.3,6.882,1.175,11.63,103.6958,8.74,9.81,26.7,0,109.9,13.44,9.52,244.3
"2009-01-02 01:16:00",504513,8.48,271.9,6.388,1.291,9.63,103.6917,8.73,9.65,26.38,0,109.9,13.45,9.51,233.9
"2009-01-02 01:16:30",504514,7.227,262.1,4.966,0.607,8.54,103.6981,8.74,9.63,26.19,0,109.9,13.48,9.52,224.1
"2009-01-02 01:17:00",504515,8.58,271.1,10.37,1.177,12.42,103.7061,8.76,9.87,26.4,0,109.9,13.44,9.55,233.1
"2009-01-02 01:17:30",504516,8.92,276.6,6.925,1.426,12.61,103.7239,8.81,9.87,26.37,0,109.9,13.44,9.59,238.6
"2009-01-02 01:18:00",504517,8.65,277.3,7.731,1.71,12.14,103.7335,8.83,9.96,26.38,0,109.9,13.44,9.62,239.3
"2009-01-02 01:18:30",504518,11.52,297.3,6.964,1.304,12.2,103.7341,8.83,9.9,26.24,0,109.9,13.44,9.62,259.3
"2009-01-02 01:19:00",504519,11.29,302.4,7.618,1.401,10.91,103.7352,8.84,9.9,26.14,0,109.9,13.44,9.62,264.4
"2009-01-02 01:19:30",504520,9.11,305.7,7.664,0.921,10.1,103.7462,8.87,9.78,25.99,0,109.9,13.44,9.65,267.7
"2009-01-02 01:20:00",504521,8.41,276.4,7.893,1.416,11.76,103.7499,8.87,9.97,26.27,0,109.9,13.44,9.66,238.4
"2009-01-02 01:20:30",504522,8.19,266,6.83,1.125,12.2,103.7329,8.83,9.92,26.32,0,109.9,13.44,9.61,228.0
"2009-01-02 01:21:00",504523,5.839,256.1,5.049,0.779,9.43,103.7323,8.83,9.83,26.21,0,109.9,13.44,9.61,218.1
"2009-01-02 01:21:30",504524,7.335,274,6.43,1.207,12.14,103.7312,8.83,9.98,26.4,0,109.9,13.44,9.61,236.0
"2009-01-02 01:22:00",504525,7.508,278.8,5.698,1.691,9.96,103.73,8.82,9.87,26.29,0,109.9,13.44,9.61,240.8
"2009-01-02 01:22:30",504526,10.44,278.4,7.251,0.987,9.19,103.7283,8.82,9.71,26.2,0,109.9,13.44,9.60,240.4
"2009-01-02 01:23:00",504527,10.27,289.5,8.3,1.141,11.91,103.7159,8.79,9.97,26.49,0,109.9,13.44,9.57,251.5
"2009-01-02 01:23:30",504528,10.88,279.9,6.569,1.015,12.37,103.7015,8.75,9.92,26.52,0,109.9,13.44,9.53,241.9
"2009-01-02 01:24:00",504529,10.98,276,4.332,0.852,12.73,103.6958,8.74,9.88,26.57,0,109.9,13.44,9.52,238.0
"2009-01-02 01:24:30",504530,8.39,272,7.783,1.237,11.23,103.6935,8.73,9.91,26.59,0,110,13.44,9.51,234.0
"2009-01-02 01:25:00",504531,10.25,270.1,5.946,0.692,11.04,103.6803,8.7,9.76,26.54,0,110,13.44,9.48,232.1
"2009-01-02 01:25:30",504532,11.48,286.1,9.28,0.788,10.61,103.6656,8.66,9.73,26.38,0,110,13.44,9.44,248.1
"2009-01-02 01:26:00",504533,10.16,283.2,11.29,1.27,11.87,103.6879,8.72,9.82,26.41,0,110,13.44,9.50,245.2
"2009-01-02 01:26:30",504534,10.45,275.4,8.23,1.346,12.17,103.6927,8.73,9.86,26.77,0,110,13.44,9.51,237.4
"2009-01-02 01:27:00",504535,11.22,285.9,6.546,1.444,12.61,103.6763,8.69,9.89,26.86,0,110,13.44,9.47,247.9
"2009-01-02 01:27:30",504536,10.08,290.6,6.82,1.38,11.7,103.6613,8.65,9.87,26.85,0,110,13.44,9.43,252.6
"2009-01-02 01:28:00",504537,10.77,290,4.524,1.051,9.72,103.661,8.65,9.72,26.76,0,110,13.44,9.43,252.0
"2009-01-02 01:28:30",504538,10.31,303.2,12.75,0.715,10.4,103.6604,8.65,9.74,26.87,0,110,13.44,9.43,265.2
"2009-01-02 01:29:00",504539,9.27,316.5,7.998,1.618,11.24,103.6556,8.63,9.74,26.81,0,110,13.44,9.42,278.5
"2009-01-02 01:29:30",504540,8.37,304.8,11.3,1.796,11.88,103.6613,8.65,9.82,26.92,0,110,13.44,9.43,266.8
"2009-01-02 01:30:00",504541,7.444,317.8,17.14,1.28,12,103.661,8.65,9.82,26.82,0,110,13.44,9.43,279.8
"2009-01-02 01:30:30",504542,7.232,299.8,11.68,1.274,11.27,103.6613,8.65,9.82,26.8,0,110,13.44,9.43,261.8
"2009-01-02 01:31:00",504543,8.25,291.7,9.96,0.969,9.66,103.6613,8.65,9.59,26.65,0,110,13.44,9.43,253.7
"2009-01-02 01:31:30",504544,11.93,299,7.815,1.402,9.39,103.661,8.65,9.68,26.54,0,110,13.44,9.43,261.0
"2009-01-02 01:32:00",504545,11.74,295,5.821,1.156,12.35,103.6613,8.65,9.82,26.77,0,110,13.44,9.43,257.0
"2009-01-02 01:32:30",504546,12.23,300.5,5.641,1.095,13.22,103.6616,8.65,9.84,26.91,0,110,13.44,9.43,262.5
"2009-01-02 01:33:00",504547,12.69,300.6,5.612,0.889,13.14,103.6613,8.65,9.85,27.02,0,110,13.44,9.43,262.6
"2009-01-02 01:33:30",504548,13.54,296.6,5.183,0.877,12.82,103.6616,8.65,9.88,27.1,0,110,13.44,9.43,258.6
"2009-01-02 01:34:00",504549,12.47,287.9,6.295,1.505,11.09,103.661,8.65,9.71,26.99,0,110,13.44,9.43,249.9
"2009-01-02 01:34:30",504550,11.06,282.2,4.257,1.124,8.98,103.661,8.65,9.6,27.06,0,110,13.44,9.43,244.2
"2009-01-02 01:35:00",504551,11.64,284.3,5.548,1.271,10.88,103.6545,8.63,9.63,27.19,0,109.9,13.44,9.41,246.3
"2009-01-02 01:35:30",504552,13.18,296.9,7.976,1.349,12.6,103.6421,8.6,9.8,27.29,0,110,13.44,9.38,258.9
"2009-01-02 01:36:00",504553,13.09,305.4,8.2,1.245,13.29,103.6517,8.62,9.81,27.08,0,110,13.44,9.41,267.4
"2009-01-02 01:36:30",504554,11.82,298.5,8.48,1.415,12.73,103.6604,8.65,9.78,27.02,0,110,13.44,9.43,260.5
"2009-01-02 01:37:00",504555,10.83,306.5,7.32,1.698,9.85,103.661,8.65,9.67,26.87,0,110,13.44,9.43,268.5
"2009-01-02 01:37:30",504556,10.03,295.8,6.425,0.702,9.09,103.661,8.65,9.78,27.02,0,110,13.44,9.43,257.8
"2009-01-02 01:38:00",504557,11.62,306.4,8.37,1.131,11.43,103.661,8.65,9.74,27.11,0,110,13.44,9.43,268.4
"2009-01-02 01:38:30",504558,12.8,296.8,5.272,0.569,13.27,103.661,8.65,9.81,27.23,0,109.9,13.44,9.43,258.8
"2009-01-02 01:39:00",504559,11.84,294.7,5.692,0.967,12.65,103.661,8.65,9.8,27.26,0,110,13.44,9.43,256.7
"2009-01-02 01:39:30",504560,12.05,297.1,5.615,1.208,12.05,103.6613,8.65,9.79,27.21,0,110,13.44,9.43,259.1
"2009-01-02 01:40:00",504561,11.24,301,7.967,1.674,10.62,103.661,8.65,9.65,27.02,0,110,13.44,9.43,263.0
"2009-01-02 01:40:30",504562,10.92,302.6,6.742,1.11,8.8,103.661,8.65,9.68,26.98,0,110,13.47,9.43,264.6
"2009-01-02 01:41:00",504563,12.43,328,6.703,1.108,12.75,103.663,8.65,9.81,27.05,0,110,13.44,9.43,290.0
"2009-01-02 01:41:30",504564,11.42,321.1,11.04,2.626,12.6,103.6929,8.73,9.83,27.01,0,110,13.44,9.51,283.1
"2009-01-02 01:42:00",504565,14.07,319.1,7.08,1.038,13.08,103.6952,8.73,9.89,27.01,0,110,13.44,9.52,281.1
"2009-01-02 01:42:30",504566,12.44,318.7,6.011,1.954,12.44,103.7023,8.75,9.85,26.93,0,110,13.44,9.54,280.7
"2009-01-02 01:43:00",504567,10.28,306.3,8.74,1.447,11.73,103.7124,8.78,9.81,26.84,0,110,13.44,9.56,268.3
"2009-01-02 01:43:30",504568,10.54,301.4,7.723,1.065,9.35,103.7229,8.81,9.77,26.78,0,110,13.44,9.59,263.4
"2009-01-02 01:44:00",504569,11.44,300.7,6.268,1.351,12.29,103.7285,8.82,9.91,26.97,0,110,13.44,9.60,262.7
"2009-01-02 01:44:30",504570,10.7,306.4,7.675,1.175,12.36,103.7288,8.82,9.86,26.9,0,110,13.44,9.60,268.4
"2009-01-02 01:45:00",504571,9.15,302.6,5.465,1.111,9.71,103.7288,8.82,9.74,26.71,0,110,13.44,9.60,264.6
"2009-01-02 01:45:30",504572,10.63,319.6,6.575,1.78,12.23,103.7288,8.82,9.95,26.89,0,109.9,13.44,9.60,281.6
"2009-01-02 01:46:00",504573,8.15,314.8,9.06,1.343,12.29,103.7288,8.82,9.86,26.81,0,109.9,13.44,9.60,276.8
"2009-01-02 01:46:30",504574,7.494,301.4,7.561,0.873,9,103.7285,8.82,9.73,26.77,0,109.9,13.44,9.60,263.4
"2009-01-02 01:47:00",504575,7.85,320.8,6.253,1.169,12.02,103.7076,8.77,9.9,26.97,0,109.9,13.44,9.55,282.8
"2009-01-02 01:47:30",504576,7.348,319.9,7.609,1.33,11.57,103.6949,8.73,9.86,26.92,0,109.9,13.44,9.52,281.9
"2009-01-02 01:48:00",504577,5.792,316.1,4.589,1.217,9.16,103.6949,8.73,9.71,26.74,0,109.9,13.44,9.52,278.1
"2009-01-02 01:48:30",504578,6.639,318.7,9.03,1.633,10.64,103.6949,8.73,9.88,26.94,0,109.9,13.44,9.52,280.7
"2009-01-02 01:49:00",504579,8.72,313.3,6.651,1.526,11.95,103.6949,8.73,9.86,26.96,0,109.9,13.44,9.52,275.3
"2009-01-02 01:49:30",504580,7.254,303.9,6.71,1.162,9.72,103.6949,8.73,9.61,26.71,0,109.9,13.44,9.52,265.9
"2009-01-02 01:50:00",504581,10.89,312.8,6.942,2.079,11.75,103.6949,8.73,9.88,26.91,0,109.9,13.43,9.52,274.8
"2009-01-02 01:50:30",504582,14.52,307.1,6.405,1.442,12.77,103.6949,8.73,9.86,26.74,0,109.9,13.43,9.52,269.1
"2009-01-02 01:51:00",504583,12.37,291.7,13.51,1.334,12.9,103.6949,8.73,9.85,26.78,0,109.9,13.43,9.52,253.7
"2009-01-02 01:51:30",504584,9.57,301.6,7.154,1.276,12.46,103.711,8.78,9.9,26.82,0,109.9,13.43,9.56,263.6
"2009-01-02 01:52:00",504585,7.455,300.3,4.603,1.3,10.45,103.7288,8.82,9.87,26.79,0,109.9,13.43,9.60,262.3
"2009-01-02 01:52:30",504586,7.203,290.8,4.797,0.755,8.27,103.7288,8.82,9.74,26.75,0,109.9,13.47,9.60,252.8